Location: Unspecified
(29.9680°N, 0.0000°E)
Time: 10:17:52
(UTC+00:00)

Explorer 7 - Pass Details

Date: 01 July 2019
Orbit: 485 x 680 km, 50.3° (Epoch: 16 July)

Event Time Altitude Azimuth Distance (km) Brightness Sun altitude
Rises 06:03:00 0° 279° (W) 2,625 9.7 11.1°
Reaches altitude 10° 06:06:32 10° 313° (NW) 1,784 9.2 11.9°
Maximum altitude 06:08:02 12° 334° (NNW) 1,697 9.3 12.2°
Drops below altitude 10° 06:09:34 10° 356° (N) 1,828 9.7 12.5°
Sets 06:13:20 0° 29° (NNE) 2,784 11.2 13.3°
